Location: Peebles
(55.6412°N, 3.1714°W)
Time: 11:07:02
(UTC+01:00)

OBJECT A - Pass Details

Date: 09 July 2022
Orbit: 611 x 632 km, 97.9° (Epoch: 16 August)

Event Time Altitude Azimuth Distance (km) Brightness Sun altitude
Exits shadow 22:59:02 - 155° (SSE) 2,134 ? -6.7°
Reaches altitude 10° 22:59:24 10° 155° (SSE) 1,986 ? -6.7°
Maximum altitude 23:03:42 73° 72° (ENE) 653 ? -7.0°
Drops below altitude 10° 23:08:01 10° 348° (NNW) 1,989 ? -7.3°
Sets 23:10:12 0° 346° (NNW) 2,897 ? -7.5°
